Theta_e
308 308 308 308 309 309 309 309 310 310 310 310 310 310 310 310 310 310 311 311 310 311 311 311 311 311 310 310 310 310 309 310 310 311 315 317 315 314 313 311 312 312 312 312 312 313 313 314 315 314 315 316 317 318 317 317 317 319 323 323 321 322 322 322 321 320 321 319 317 317 318 317 317 316 316 316 316 317 317 317 317 316 316 315 315 316 316 317
308 308 308 309 309 309 309 309 310 310 310 310 310 310 311 311 311 311 311 311 311 311 311 311 311 310 310 310 310 309 310 309 310 312 316 316 313 312 312 312 312 312 312 312 312 314 314 315 315 314 316 316 316 318 319 318 317 320 323 322 322 323 320 320 319 318 320 319 317 317 317 317 317 316 316 316 316 316 317 317 317 317 316 315 315 315 315 315
308 308 308 309 309 309 309 309 310 310 310 310 310 311 311 311 311 311 311 311 311 310 311 311 311 310 310 310 310 309 309 309 311 314 315 314 312 312 312 312 312 312 312 312 313 315 315 315 314 314 316 315 316 317 319 319 318 319 323 323 322 321 319 318 319 317 318 318 318 317 317 317 317 317 316 316 316 316 316 316 317 317 317 316 315 315 315 315
308 309 309 309 309 309 309 309 310 310 310 310 311 311 311 311 311 311 311 311 311 311 311 311 311 310 310 310 310 309 311 311 312 314 314 312 312 312 312 312 313 312 313 312 312 314 315 315 314 315 316 315 316 317 318 318 318 319 320 321 320 318 318 318 317 317 317 318 318 318 317 317 317 318 317 316 316 316 317 317 317 317 317 316 316 316 315 315
308 308 308 309 309 309 309 309 310 310 310 310 311 311 311 311 311 311 311 311 311 311 311 311 310 310 310 310 310 309 311 314 315 315 313 312 312 312 312 313 313 313 313 313 313 313 314 315 314 315 315 316 316 316 317 317 317 318 318 318 318 317 318 317 316 316 317 318 318 318 317 317 317 317 317 317 317 317 318 318 317 318 318 317 317 316 316 315
308 308 308 309 309 309 309 309 310 310 310 310 311 311 311 311 311 311 311 311 310 310 311 311 310 310 310 309 309 309 312 315 315 315 312 311 313 312 312 313 312 313 313 313 313 314 314 315 315 315 316 317 316 315 317 317 316 317 318 317 316 317 317 316 316 316 317 317 318 317 317 317 317 317 317 317 317 317 318 318 318 318 318 318 317 317 316 316
308 308 309 309 309 309 309 309 310 310 310 310 310 310 311 311 311 311 311 310 310 310 310 311 311 310 309 309 310 309 311 314 314 314 312 312 313 312 313 313 313 313 313 314 314 314 314 315 315 315 316 316 317 316 317 317 315 316 317 317 316 317 316 316 316 315 316 317 317 316 317 317 317 317 317 317 317 317 318 318 317 317 317 317 317 316 316 316
308 308 309 309 309 309 309 309 309 309 310 310 310 310 311 311 311 310 310 310 309 310 310 311 310 310 310 309 310 310 311 314 315 313 312 312 313 312 312 312 313 313 313 314 315 315 315 315 315 316 317 316 316 317 316 316 315 316 317 317 316 316 315 315 315 315 315 316 316 316 316 317 317 317 316 317 318 317 317 317 317 317 316 316 316 316 316 316
308 308 309 309 309 309 309 309 309 309 309 310 310 310 310 310 310 310 310 310 309 310 310 310 310 310 309 309 310 313 314 315 314 313 312 313 313 312 312 312 313 312 313 314 314 316 315 315 316 316 317 316 316 316 316 316 316 317 317 317 317 316 315 315 315 315 316 316 316 316 316 317 317 317 317 317 317 317 317 317 317 317 316 316 316 316 316 315
308 308 309 309 309 309 309 309 309 309 309 310 310 310 310 310 309 309 310 309 309 310 310 310 310 309 309 309 311 314 316 315 313 313 313 313 313 312 312 312 312 313 315 314 313 315 316 316 317 316 316 316 316 316 316 317 317 317 317 317 317 316 315 316 316 315 316 316 315 316 317 317 316 316 317 317 317 317 317 317 317 317 316 316 316 316 315 316
309 309 309 309 309 309 308 308 309 309 309 310 310 309 309 309 308 309 310 309 309 309 310 310 310 309 309 310 312 313 315 313 312 312 313 313 313 312 312 313 314 314 316 315 313 314 316 317 316 316 316 316 316 316 317 317 317 317 317 317 316 316 316 316 316 315 316 316 315 316 317 316 316 317 317 317 318 317 317 317 317 317 316 316 316 316 316 316
309 308 309 309 308 309 308 309 309 309 309 308 309 308 308 307 307 309 309 309 308 309 310 310 309 309 308 310 312 314 315 313 312 312 312 313 312 312 313 313 315 315 316 316 314 313 315 315 316 316 316 316 316 316 316 317 318 317 317 317 317 317 317 316 316 316 316 316 316 316 317 318 317 318 317 316 318 317 317 317 317 317 316 316 316 316 316 316
308 308 308 308 308 308 308 308 308 308 307 307 307 307 306 306 307 308 308 307 308 308 309 309 309 309 309 311 313 313 314 312 312 312 312 312 312 312 313 314 316 315 315 317 314 313 314 314 316 317 317 317 316 316 316 317 317 317 317 318 318 317 317 317 317 317 316 316 316 316 318 320 318 318 318 317 318 317 317 317 317 317 317 317 316 316 316 316
308 308 308 308 308 307 307 307 307 307 306 306 306 306 306 306 306 307 307 307 307 308 309 309 308 308 309 313 314 312 313 313 311 312 312 312 312 312 313 314 316 315 315 315 314 314 314 314 315 316 317 317 317 316 317 317 317 317 317 318 319 318 318 318 317 317 316 316 316 316 318 319 317 318 318 318 318 317 317 317 317 317 317 318 318 317 317 317
307 308 307 307 307 307 306 306 306 306 306 306 306 306 306 306 306 306 306 307 307 308 308 308 308 309 310 312 313 312 313 313 312 312 312 312 312 313 313 314 315 316 315 315 315 315 315 315 316 316 316 316 316 317 317 317 316 318 318 318 319 319 319 319 317 317 317 316 316 317 318 318 317 318 319 318 318 317 317 317 318 318 318 318 318 318 318 318
307 307 306 306 306 306 306 306 307 307 307 307 307 307 307 307 307 307 307 307 307 307 308 308 308 310 312 313 313 312 314 313 312 312 312 312 313 314 313 313 316 316 316 315 315 315 315 317 317 317 316 316 317 319 319 318 318 318 318 318 320 319 318 319 317 316 317 316 316 317 318 318 318 318 318 318 318 318 317 317 318 318 318 319 318 319 318 318
306 306 306 307 307 307 308 308 308 308 308 307 307 307 307 307 307 307 307 307 307 307 308 310 310 309 311 314 313 312 312 313 312 312 312 312 313 314 313 314 316 316 316 316 316 316 316 317 317 317 316 317 318 318 320 319 318 319 319 318 320 320 318 318 317 316 316 317 317 317 317 317 317 317 317 318 318 317 317 317 318 318 318 319 319 319 319 318
308 308 308 308 308 308 308 308 308 307 307 306 306 307 307 307 307 307 307 307 308 308 309 311 311 310 311 311 313 313 312 312 312 312 312 312 312 314 315 316 315 315 316 316 317 317 317 316 316 318 318 317 317 319 320 320 319 319 319 318 318 319 318 317 317 317 317 317 317 317 317 317 317 317 317 318 318 317 318 318 318 318 318 318 318 318 318 318
308 308 308 308 308 308 308 308 307 306 306 306 306 306 306 307 307 307 307 307 308 309 310 311 310 312 312 311 313 314 312 311 312 312 312 312 312 313 315 316 316 316 316 317 317 316 318 317 317 320 320 317 317 319 320 320 317 316 319 318 317 318 317 317 317 316 316 317 317 317 316 317 317 318 317 318 318 318 318 318 318 318 318 318 318 318 317 318
309 309 308 308 307 307 307 307 306 306 306 306 306 306 307 309 310 310 307 307 309 312 313 311 310 313 314 312 314 314 312 312 311 311 312 312 312 313 314 315 316 316 316 318 318 317 317 319 321 322 321 318 317 318 318 317 315 315 317 317 317 317 317 317 317 315 315 316 316 317 317 316 317 318 317 317 318 317 317 317 317 318 318 318 318 318 317 317
312 311 310 309 308 307 307 307 306 306 306 306 305 308 311 312 313 312 310 308 309 312 313 311 312 314 314 313 313 313 312 312 313 312 311 312 312 314 315 316 316 316 317 318 318 317 317 319 322 320 318 318 317 317 317 316 315 316 316 317 318 318 318 317 317 315 314 316 317 316 317 316 316 317 317 317 317 317 316 316 317 317 317 318 318 318 318 317
316 315 315 314 311 308 307 307 307 306 305 305 306 310 313 312 312 313 311 310 309 310 311 311 312 313 312 312 312 313 314 314 315 314 311 312 314 314 316 316 315 316 317 318 317 318 318 319 319 317 317 317 317 317 316 316 316 317 317 318 319 320 319 317 316 315 314 316 317 316 316 316 315 317 316 315 316 316 317 316 316 317 317 317 318 318 318 318
318 319 318 318 317 314 311 308 307 306 306 306 306 308 310 310 311 310 310 311 312 311 309 309 310 311 311 311 311 313 315 315 315 315 312 312 314 315 315 314 314 316 317 317 318 319 319 318 317 316 317 316 316 315 315 316 317 318 318 318 319 321 320 317 315 316 315 315 317 317 317 316 316 317 316 315 315 316 316 316 316 317 317 317 318 318 319 318
320 319 319 320 319 319 318 314 309 307 307 307 306 307 308 309 309 308 309 312 313 312 310 309 309 311 312 312 311 313 315 315 316 316 312 312 315 314 315 314 314 316 317 316 317 318 317 316 316 316 316 317 316 315 316 316 316 319 321 319 319 320 319 318 317 317 316 317 319 319 320 321 320 321 321 318 317 316 316 317 317 318 317 317 318 318 318 319
321 320 320 319 319 320 319 318 315 310 308 307 307 307 307 308 307 308 310 313 313 313 312 311 310 310 312 312 311 312 314 314 316 316 312 313 315 314 315 316 314 315 316 316 316 316 316 315 316 317 316 317 316 316 318 318 316 318 322 322 320 318 318 320 321 320 317 317 319 319 321 324 323 322 323 321 320 319 318 318 318 319 318 318 318 318 317 318
322 321 320 319 320 319 319 320 319 317 313 309 307 307 307 307 308 308 310 312 314 313 312 312 311 311 312 312 312 312 313 313 316 316 313 313 315 314 314 315 314 315 315 316 316 317 316 314 317 320 319 320 319 317 320 320 316 315 321 324 321 319 321 322 321 320 318 318 319 318 319 321 318 316 318 318 318 318 318 319 319 318 319 319 318 318 318 318
321 321 321 320 320 319 320 321 320 320 318 314 311 308 307 309 309 309 312 314 315 314 313 312 311 312 312 312 313 312 313 314 315 316 314 313 315 314 314 314 314 314 314 317 318 318 317 316 320 321 320 323 320 318 319 319 317 318 323 324 320 319 321 321 320 319 320 320 320 320 319 319 318 316 316 316 316 316 316 319 319 318 319 319 319 320 320 321
321 320 321 321 320 320 320 321 320 321 320 318 314 309 308 310 310 310 312 314 316 315 313 312 311 313 313 311 312 312 313 315 315 316 314 313 315 314 313 314 314 314 314 318 319 318 317 319 322 321 321 322 320 321 323 320 319 322 323 322 321 322 322 321 320 320 322 320 320 322 320 320 321 319 318 318 316 317 317 319 318 316 318 319 320 321 321 320
320 320 321 320 320 320 321 320 320 320 320 319 314 309 310 311 311 314 313 313 316 315 312 311 311 313 313 312 313 312 312 313 315 315 314 313 314 314 313 313 313 315 314 315 318 319 318 316 318 320 320 319 319 323 326 323 320 320 321 322 322 323 322 321 320 320 322 318 318 324 323 317 317 317 318 318 317 319 320 319 319 317 318 321 320 320 320 318
320 320 321 321 321 321 321 321 320 320 320 320 314 309 311 313 313 316 313 313 318 316 310 310 311 313 313 312 313 312 312 313 314 314 313 314 314 313 314 314 313 316 317 316 317 317 315 312 314 317 318 317 317 318 320 322 320 318 321 323 321 321 321 321 320 319 320 318 318 324 324 317 315 318 321 320 319 321 320 319 322 323 322 321 319 318 317 317
319 319 320 321 321 320 320 321 320 320 320 320 315 309 312 316 316 316 313 313 318 316 310 310 312 312 312 312 312 311 312 314 314 314 314 314 314 313 314 314 314 317 320 320 319 317 316 316 315 315 314 314 316 317 317 318 318 319 321 321 319 321 321 320 320 320 320 318 319 324 324 318 316 319 321 320 319 321 320 320 323 325 322 319 317 317 317 317
317 318 319 320 321 320 320 320 320 320 320 321 317 312 315 318 318 318 316 314 315 316 313 313 313 312 311 312 313 311 312 314 314 314 315 315 315 314 314 315 315 317 319 318 319 320 320 319 318 315 314 314 317 319 318 317 319 321 321 320 319 319 321 322 323 325 322 318 319 322 322 319 316 316 318 319 319 319 320 320 320 321 321 319 318 318 318 317
315 316 319 319 320 321 320 320 320 319 319 320 317 315 319 320 318 319 317 314 315 317 316 314 313 312 312 313 313 312 313 314 314 314 315 316 315 315 314 315 315 316 317 316 319 321 320 320 319 317 315 315 317 319 318 318 320 320 320 321 321 318 319 321 322 324 323 321 320 319 320 322 318 316 318 318 317 318 318 318 318 319 319 319 319 319 319 318
314 314 317 318 319 320 320 320 319 319 320 319 314 315 318 319 319 319 317 317 318 317 316 315 314 313 312 313 314 313 313 315 314 314 316 317 316 316 315 315 315 315 315 315 318 320 319 320 320 318 316 316 317 317 317 318 318 318 318 319 321 318 317 317 319 321 323 323 319 317 320 323 320 318 320 318 316 317 318 318 319 318 317 318 319 318 318 318
314 314 315 317 318 319 319 319 319 319 320 316 313 315 317 318 320 320 318 319 318 316 316 315 314 314 314 314 315 313 314 317 315 314 317 317 316 316 315 315 314 315 315 315 317 318 317 319 320 317 315 315 317 317 317 318 317 317 318 318 320 320 316 316 319 320 320 320 320 320 323 324 320 318 317 317 316 316 317 318 318 317 317 318 318 318 316 317
313 313 313 315 317 318 318 318 318 319 319 315 314 316 316 317 320 320 319 320 319 317 315 315 315 315 314 316 317 314 315 318 318 316 318 318 316 316 316 316 314 314 315 314 316 318 318 320 321 317 314 313 315 317 317 317 318 318 319 319 321 320 316 317 320 318 317 317 318 320 321 319 316 316 317 316 316 316 316 318 317 317 317 317 317 316 316 317
312 313 313 314 315 316 317 317 317 319 318 316 316 317 316 317 320 319 319 320 318 316 316 316 317 315 315 316 317 316 316 318 318 317 317 317 317 316 316 317 315 314 315 314 316 319 319 320 320 318 317 315 313 315 317 315 317 321 321 319 320 321 319 318 318 319 319 317 316 316 315 314 313 316 320 319 317 317 317 317 317 316 317 317 316 316 316 317
311 312 313 313 314 315 315 316 317 317 316 315 316 316 314 316 318 319 320 320 318 317 317 318 318 317 316 316 316 316 316 316 316 316 317 316 316 317 315 316 317 314 314 314 315 318 318 317 317 317 318 316 314 315 318 315 315 319 320 317 319 322 321 319 316 316 317 316 316 316 315 315 313 314 317 317 319 320 319 318 318 317 316 316 317 317 316 318
310 311 312 313 314 314 314 315 316 315 314 314 314 314 313 314 315 317 318 320 321 319 318 318 318 318 317 317 318 317 314 315 316 315 316 315 316 317 315 316 318 316 314 314 314 317 317 317 318 316 315 316 315 316 319 318 316 317 317 317 320 321 321 321 317 315 316 315 315 315 315 316 314 314 315 316 319 320 318 318 318 316 316 317 317 318 318 319
310 311 312 312 312 313 314 314 314 314 313 314 313 313 313 313 314 315 315 317 320 320 321 322 321 319 318 317 318 318 315 315 317 316 315 315 316 316 314 315 318 317 315 314 315 316 316 316 317 316 314 316 317 316 316 317 317 317 318 319 320 320 320 322 320 317 317 316 315 314 315 316 315 316 317 317 318 319 319 320 320 316 316 318 318 319 320 319
309 310 311 312 311 312 313 313 313 312 313 314 313 313 314 314 315 316 315 316 317 317 319 322 321 321 322 320 319 320 317 315 317 317 316 315 315 317 317 315 317 318 317 316 316 316 315 315 317 318 316 317 317 316 315 317 317 316 315 317 318 318 319 320 319 318 318 318 317 317 317 317 316 316 318 317 319 323 322 321 321 319 318 320 320 320 320 319
309 309 310 311 311 312 313 313 312 312 314 315 314 313 314 315 315 316 316 316 316 316 316 318 319 320 322 322 322 322 320 317 317 318 317 316 316 318 318 316 315 317 317 316 316 315 315 315 317 318 318 317 317 317 317 318 319 318 316 315 315 316 317 318 318 320 321 319 318 318 319 317 315 318 320 318 319 321 320 319 318 318 319 319 320 319 318 317
307 308 310 311 311 311 312 313 313 313 313 314 314 314 314 315 315 316 316 316 316 316 317 317 318 318 319 320 320 321 320 320 320 320 319 318 318 317 316 315 316 316 316 317 317 316 315 317 317 316 317 318 318 317 316 316 318 320 319 318 317 317 317 317 319 322 324 322 319 319 319 316 318 324 322 317 317 318 317 318 317 317 319 318 318 318 317 317
306 307 308 310 311 312 312 312 313 313 313 313 314 314 314 315 315 316 316 315 315 316 316 316 316 316 318 318 318 319 320 320 319 318 319 319 318 316 314 314 316 316 316 318 318 316 316 318 318 316 317 318 318 318 318 317 317 318 319 320 319 320 319 318 318 320 321 322 321 320 318 315 319 326 321 317 320 319 316 317 317 317 318 317 317 317 317 318
305 305 306 309 311 311 311 312 312 312 313 313 314 314 314 315 315 315 316 315 315 315 316 316 316 316 317 318 318 317 317 318 317 317 318 318 317 316 313 313 314 314 314 314 314 315 318 319 317 316 317 317 318 320 321 320 318 317 318 319 319 320 321 320 320 320 319 320 320 319 317 316 317 321 320 320 323 320 317 316 317 317 317 317 317 317 318 318
305 305 306 307 309 311 311 311 311 312 312 312 313 313 314 315 315 315 316 315 315 315 315 316 316 316 316 317 318 317 316 316 316 317 318 319 319 316 312 311 312 311 311 312 312 315 320 320 317 316 316 316 317 321 323 320 318 317 318 318 318 319 320 320 320 320 318 318 318 317 317 317 316 317 318 319 321 322 320 317 317 317 317 317 318 317 317 318
305 305 306 306 308 309 309 310 310 311 311 312 312 312 313 314 314 314 315 315 315 315 316 316 316 317 317 317 317 317 316 317 316 316 317 318 319 316 312 311 311 310 310 311 312 317 320 317 316 317 316 316 318 320 320 319 318 317 317 317 317 318 320 320 319 318 318 318 317 317 317 318 316 315 316 317 318 320 320 317 316 317 317 318 318 318 317 317
304 305 306 306 307 307 307 308 309 310 310 311 312 312 312 313 313 314 314 314 315 315 316 317 316 316 316 316 317 317 317 318 317 316 316 317 318 317 315 313 311 309 310 311 311 317 321 317 316 317 316 316 317 317 318 319 318 317 317 317 317 317 318 319 318 317 317 318 317 317 318 318 317 315 316 317 317 316 316 316 316 317 317 317 318 317 318 318
303 304 305 306 307 307 307 307 308 309 309 310 311 311 312 312 313 313 314 314 314 315 315 316 316 316 316 316 317 317 317 318 318 317 316 316 317 317 317 316 311 307 310 312 310 313 318 317 314 315 316 316 316 316 317 318 317 317 318 319 318 318 317 317 317 317 317 317 317 317 317 317 316 315 316 316 316 315 315 316 316 316 316 317 317 317 317 318
302 302 304 306 307 307 307 307 308 309 309 310 311 311 311 312 312 312 313 314 314 314 314 315 315 316 316 316 316 317 317 317 317 317 316 316 317 317 317 317 314 309 309 313 312 312 314 315 312 313 315 316 315 315 316 316 316 317 317 318 319 319 318 317 317 316 317 317 316 316 317 316 315 315 315 315 315 315 315 315 315 315 316 316 317 317 318 317
301 302 303 305 306 306 307 307 308 309 308 309 309 310 310 311 312 312 313 313 313 314 314 314 314 315 315 315 315 316 315 316 317 316 316 315 315 316 315 315 316 313 311 312 313 312 312 312 311 312 315 316 316 316 315 315 316 316 316 317 317 317 318 318 318 317 317 317 317 317 317 316 315 314 315 315 314 314 314 315 315 316 316 317 317 317 317 317
300 301 302 303 304 305 306 307 308 308 309 308 309 309 310 310 311 311 312 312 313 313 313 313 314 314 314 314 314 315 314 315 316 316 315 315 315 314 315 314 314 314 312 312 312 311 311 312 312 313 315 316 316 317 316 316 316 316 317 316 316 316 316 316 318 318 317 317 317 317 316 316 315 315 316 316 315 315 315 315 316 316 316 317 317 317 317 317
Wind_Speed
18 17 17 17 17 17 16 16 16 15 15 14 14 13 13 13 13 13 12 12 11 10 10 10 10 10 9 8 7 6 6 6 7 7 7 7 8 8 7 7 6 6 6 5 6 5 4 3 3 4 4 4 4 3 4 4 4 2 0 1 4 3 1 0 2 3 5 6 6 11 13 8 6 8 6 4 4 4 4 6 6 6 8 8 5 6 7 7
20 19 18 18 18 18 17 17 17 16 15 15 14 13 13 13 12 12 12 11 11 10 10 10 10 10 9 7 6 6 5 6 6 7 7 7 7 7 6 6 6 6 6 6 7 6 2 1 3 4 4 5 5 4 3 3 5 3 1 2 3 1 3 6 8 8 5 6 9 11 11 7 8 11 9 4 6 9 5 6 9 8 8 11 10 8 7 7
20 20 19 19 18 18 17 17 17 16 16 15 14 14 13 13 12 12 11 11 11 10 10 10 11 10 8 7 6 5 4 5 6 8 9 8 7 6 6 6 5 5 5 7 7 6 4 2 4 5 5 5 5 5 5 4 5 2 1 2 1 2 5 10 13 9 7 5 8 11 8 5 9 10 10 5 6 10 9 9 12 12 13 13 13 13 11 10
21 21 20 20 19 18 18 17 17 16 16 16 15 14 13 13 12 12 11 11 11 10 10 11 11 10 8 7 6 4 4 4 5 10 10 8 7 6 6 6 5 5 5 5 6 8 7 4 4 6 5 4 6 6 6 6 4 2 1 1 3 5 4 8 10 7 6 5 5 9 6 3 8 8 9 7 4 6 9 12 13 15 17 16 14 14 13 13
23 23 22 21 20 19 18 17 17 17 17 16 15 15 14 13 12 12 11 11 11 11 11 11 11 10 8 7 6 5 5 2 4 11 10 8 8 7 8 6 6 5 5 6 6 6 7 4 4 5 5 3 7 4 5 8 5 2 2 4 5 6 4 4 5 6 6 4 5 9 4 4 9 6 7 8 4 3 3 7 10 10 13 14 13 12 12 13
23 23 22 21 19 18 18 17 17 17 16 16 15 14 14 13 13 12 12 12 11 11 12 12 12 11 9 8 7 8 7 1 2 10 11 9 9 9 9 7 7 6 5 5 6 5 5 5 6 6 6 3 7 5 4 8 6 2 2 6 7 5 4 3 2 5 5 4 4 5 2 4 7 4 7 11 10 4 3 3 5 3 5 8 9 9 9 11
19 20 20 19 19 18 17 17 16 16 15 14 14 14 13 13 13 13 13 12 12 12 12 13 12 11 9 9 8 9 9 5 4 7 11 11 10 10 9 7 6 5 5 5 4 3 4 6 8 8 6 3 7 7 5 6 6 2 1 5 5 6 6 2 1 5 4 4 3 2 2 2 3 2 4 11 14 10 6 7 5 3 3 5 7 7 7 9
19 19 19 19 18 17 16 16 15 14 13 13 13 13 13 12 13 13 14 13 13 13 13 13 13 12 10 9 8 7 10 8 4 6 11 11 11 10 9 7 5 5 5 5 5 4 4 7 8 7 4 1 5 6 5 5 5 3 1 6 4 6 5 3 3 4 3 2 1 1 2 3 3 2 4 11 14 13 13 14 12 9 7 7 8 8 8 10
19 19 19 19 18 16 15 14 14 13 13 13 12 12 12 12 13 13 14 14 14 14 14 14 13 12 10 9 8 5 8 9 5 7 11 11 11 11 9 7 5 5 3 3 6 5 5 6 6 6 1 3 4 5 4 3 2 1 5 8 6 7 5 5 5 4 3 0 1 1 4 4 2 2 8 15 17 15 13 14 16 15 12 11 11 12 13 13
19 18 18 18 17 15 14 14 13 13 13 13 12 12 12 12 12 13 14 14 13 14 14 14 13 12 10 9 7 3 5 8 6 8 12 11 11 10 8 6 4 5 2 3 6 5 5 2 1 4 0 2 5 4 2 1 1 3 7 8 8 8 5 5 5 5 4 1 1 1 4 4 4 1 6 10 10 12 14 14 15 16 15 14 14 15 15 15
19 18 17 16 15 14 13 13 13 13 13 12 12 12 12 13 13 13 13 13 13 14 14 13 13 12 10 9 7 4 5 8 7 9 11 11 11 8 6 5 3 6 4 3 6 6 6 3 2 3 1 3 6 4 3 4 3 5 8 8 7 6 5 5 5 7 5 2 2 2 6 5 4 3 11 12 5 8 15 15 14 16 16 15 15 15 16 16
19 18 17 16 15 14 13 12 12 12 11 11 12 12 12 13 13 13 13 14 13 13 14 14 13 11 10 10 8 6 6 9 8 9 11 11 10 7 4 4 3 6 6 3 6 7 5 6 4 2 2 4 5 4 4 5 4 4 6 3 5 6 4 7 7 7 6 2 3 1 4 7 5 9 21 17 12 9 11 13 13 14 14 12 13 15 16 17
18 18 17 16 14 13 13 13 12 12 11 11 11 11 11 12 13 13 13 13 13 14 14 14 13 12 10 7 7 6 6 9 10 10 11 10 10 7 4 4 3 5 7 4 5 6 6 8 5 3 3 3 3 5 4 5 4 4 4 1 4 3 3 10 9 7 6 4 5 2 2 6 6 15 21 13 15 14 11 12 12 12 12 10 12 15 17 18
17 16 16 15 14 13 13 13 12 11 11 11 10 10 10 11 12 12 12 12 13 13 14 14 13 13 10 4 4 7 7 9 11 11 12 11 9 6 4 4 4 4 5 5 5 6 7 8 5 3 3 4 6 7 5 4 2 2 2 1 2 2 2 7 9 9 5 4 6 3 1 7 5 5 10 11 13 14 13 13 12 13 13 12 13 14 17 19
15 15 15 15 14 14 13 13 12 12 12 11 10 10 10 10 10 11 11 12 12 13 13 13 13 11 7 3 4 8 9 9 11 12 12 11 8 5 4 4 4 5 5 5 5 6 7 7 5 4 5 5 7 6 3 3 2 1 2 2 3 2 1 3 6 8 4 2 7 4 1 8 6 4 9 11 11 10 11 12 12 13 13 13 14 15 16 17
13 13 13 13 14 13 13 13 12 12 12 11 11 10 10 10 10 10 11 11 12 12 11 10 11 10 4 3 6 8 10 10 9 11 12 11 9 6 5 5 5 5 5 6 5 6 8 6 4 5 6 4 4 3 3 3 2 2 3 3 3 3 3 2 1 3 4 3 5 5 3 5 4 6 9 9 9 10 10 11 11 12 13 14 15 15 16 16
13 12 12 12 12 12 12 12 12 12 11 11 11 11 10 10 10 10 10 11 11 11 11 8 8 8 4 3 5 7 12 12 10 11 12 12 10 8 7 5 6 6 6 6 6 6 6 4 4 4 3 2 4 3 3 2 3 3 4 3 2 3 3 3 1 1 4 2 3 5 5 6 7 6 7 7 8 10 11 12 12 12 14 15 15 16 18 19
13 13 13 12 12 12 11 11 12 12 12 12 12 11 11 10 10 10 11 12 11 11 10 7 8 5 4 7 7 7 12 13 12 11 12 14 11 10 9 5 6 7 6 5 5 5 4 3 3 1 1 3 4 3 4 3 2 2 3 3 3 3 4 2 2 3 5 1 3 5 6 9 10 13 15 15 13 14 15 15 16 16 17 17 18 19 21 23
12 12 12 12 12 12 12 12 12 12 13 13 13 12 12 10 9 8 11 13 12 8 3 8 12 3 1 10 12 10 12 13 12 12 13 14 12 12 10 7 7 7 5 4 3 4 4 3 1 1 3 4 4 4 4 1 4 3 1 1 2 1 2 1 4 2 3 2 4 7 7 9 9 11 15 18 17 16 17 18 18 20 21 21 22 24 25 27
11 11 11 11 12 12 13 13 13 13 14 14 15 14 11 9 7 4 9 13 12 5 0 10 15 2 3 10 14 11 10 11 12 14 15 14 14 11 8 8 7 5 4 3 3 3 3 2 2 3 5 5 6 7 3 3 5 4 3 2 3 3 2 3 3 1 2 0 5 7 8 10 9 8 11 16 17 15 16 18 19 20 22 23 24 26 28 29
12 11 11 10 10 11 12 13 14 14 15 15 17 13 7 7 5 3 9 11 13 9 2 10 12 4 4 6 12 11 9 10 10 13 15 15 15 11 7 8 5 4 4 3 5 2 2 1 4 6 4 1 1 2 3 5 4 4 3 3 3 2 0 4 3 0 2 2 4 6 7 10 9 7 10 14 13 15 19 19 21 23 23 25 25 28 30 29
11 12 13 11 10 9 10 12 13 15 16 16 17 12 5 6 5 6 8 5 11 16 9 7 7 5 4 3 9 12 9 7 7 11 15 16 16 10 9 9 4 3 4 5 6 2 2 2 6 5 3 6 5 5 6 4 4 3 1 1 2 2 1 4 3 0 1 1 4 6 7 10 11 9 11 15 15 20 27 25 23 24 23 23 26 28 29 27
9 10 12 12 12 10 8 9 11 14 16 17 18 13 6 6 6 7 6 1 5 14 14 11 7 5 6 4 9 12 9 7 7 11 16 18 16 11 10 9 5 4 5 5 4 3 2 4 6 3 6 5 4 4 4 3 2 1 2 1 2 1 1 0 1 1 3 2 3 6 6 9 12 9 10 19 25 27 31 27 23 24 23 24 26 26 26 24
6 7 7 8 10 10 8 7 8 12 15 16 17 14 7 5 6 6 5 2 1 8 13 15 11 8 9 7 9 13 9 5 6 12 19 19 15 10 8 8 7 4 5 6 6 5 3 1 3 6 5 2 3 3 2 2 1 4 5 4 4 3 1 1 1 1 4 1 3 5 6 6 8 7 7 13 19 22 25 24 21 24 25 26 27 26 25 24
8 6 4 3 4 6 7 6 6 7 11 14 14 14 9 5 6 5 4 2 2 5 8 12 12 11 13 10 9 11 7 3 4 10 19 20 14 8 6 8 7 4 6 8 6 6 4 2 4 6 4 2 3 3 4 5 2 3 4 4 4 4 3 2 4 2 2 2 2 2 4 5 4 4 5 5 5 10 15 16 18 24 23 22 24 25 25 24
11 8 5 4 4 1 4 5 6 5 5 9 10 13 11 7 7 6 3 1 2 3 5 8 9 9 13 12 11 10 2 4 7 9 18 20 14 9 5 4 3 2 5 5 3 2 1 1 2 5 5 4 3 2 4 6 2 2 3 3 2 2 3 4 4 2 1 3 4 2 0 6 5 5 9 8 8 10 9 10 17 24 22 20 21 20 18 17
12 11 8 8 8 4 1 4 5 5 5 4 5 9 11 8 8 7 4 1 3 6 6 7 8 8 10 13 16 11 1 7 12 9 18 20 14 10 5 3 4 2 3 1 1 0 3 3 2 4 5 5 4 3 3 7 3 2 3 3 3 2 3 2 3 0 2 3 3 5 4 5 7 7 10 11 13 13 9 8 13 20 21 18 15 13 11 10
14 13 11 11 11 8 4 2 2 3 5 4 3 9 10 10 10 7 3 1 2 7 6 6 8 9 11 14 19 11 5 11 9 6 19 20 14 9 5 4 5 5 3 3 3 1 2 5 5 5 4 3 4 1 3 8 4 2 3 1 2 4 4 2 2 1 2 4 4 5 5 2 7 6 7 10 11 10 9 9 11 17 18 12 11 11 10 9
15 15 15 14 13 11 10 8 6 3 2 5 3 9 11 11 10 4 1 2 3 5 4 7 9 9 12 13 14 9 8 6 1 7 18 17 13 7 2 4 4 5 8 7 5 1 2 2 2 4 4 3 2 4 2 4 3 4 4 3 5 4 4 3 2 2 3 3 5 5 6 2 7 5 5 6 7 7 9 8 9 11 11 11 12 12 10 8
16 16 17 17 16 16 14 13 11 8 4 1 2 9 12 9 6 3 2 2 1 3 4 6 7 10 14 10 7 8 6 2 4 11 11 8 10 5 1 3 3 1 4 5 3 2 2 2 3 1 2 3 6 6 6 4 5 6 4 4 5 3 4 3 1 3 3 5 5 7 11 5 4 4 4 4 6 8 6 4 2 5 11 12 11 10 7 4
19 18 18 18 20 19 17 17 16 12 9 4 2 9 10 4 2 3 5 0 1 2 4 3 5 10 14 9 5 7 5 4 8 12 6 4 7 3 2 2 1 2 2 2 1 2 3 1 1 2 3 6 7 5 7 5 4 4 3 4 4 2 4 3 2 4 1 6 4 2 9 8 5 5 2 2 3 4 2 1 1 5 9 9 7 6 4 4
20 20 19 19 20 20 19 20 18 12 10 8 7 9 6 2 1 4 3 2 1 3 5 5 6 9 11 9 6 7 6 5 9 9 5 5 5 5 6 5 4 2 1 3 2 1 2 4 3 4 3 5 5 4 4 5 3 1 3 5 4 1 1 1 2 1 3 6 4 3 1 5 9 6 1 3 4 3 4 3 1 4 8 8 6 5 5 7
16 18 19 19 19 20 20 21 18 12 12 12 11 7 2 2 5 6 5 3 1 2 4 7 8 10 11 8 5 6 5 4 8 7 5 5 5 6 7 7 8 6 3 5 4 2 1 2 4 4 0 6 7 4 3 0 2 4 5 6 5 3 2 3 4 2 3 5 4 4 2 3 7 6 5 8 6 6 8 6 3 3 3 4 6 8 9 11
13 15 18 19 19 20 20 20 19 14 15 16 12 6 2 5 6 7 9 4 2 1 3 6 8 10 10 8 6 9 5 3 9 7 4 6 4 5 6 8 10 6 2 3 4 6 4 4 5 6 4 10 9 6 7 6 5 7 5 5 5 5 4 4 3 3 4 2 3 3 0 3 3 3 4 3 3 6 6 6 7 10 12 11 10 11 13 16
12 13 16 18 19 21 21 21 20 17 18 17 10 4 5 7 4 5 6 3 2 2 4 7 7 7 7 5 4 8 3 2 9 7 5 7 6 6 7 7 11 8 4 4 3 5 6 5 5 6 8 15 12 9 9 8 4 5 3 3 5 4 3 2 2 3 2 1 2 2 3 5 4 7 9 6 8 10 7 9 13 18 19 13 12 16 20 21
12 12 14 16 18 20 21 22 21 19 18 16 8 2 6 6 2 3 2 0 2 5 7 7 5 4 5 3 1 4 1 2 7 5 4 6 6 7 7 7 12 12 8 7 2 3 5 3 1 3 6 12 11 8 9 7 4 3 3 5 4 2 3 2 1 1 3 2 5 3 5 6 3 9 10 9 12 11 8 10 13 18 19 14 15 21 23 22
11 11 13 16 17 17 19 20 21 22 19 13 5 4 5 4 3 3 2 3 2 7 8 5 4 5 6 4 3 6 2 2 6 5 3 5 4 8 10 8 12 14 13 11 4 2 5 2 2 1 3 4 2 2 3 2 3 4 4 5 2 4 2 2 1 2 1 5 5 3 8 7 3 7 4 2 7 9 8 9 12 16 17 17 22 23 21 21
10 10 13 17 17 16 17 17 20 22 17 8 3 3 2 4 4 3 2 3 1 6 6 4 5 5 7 6 5 8 6 4 6 5 4 4 3 9 12 8 10 15 18 16 6 2 3 3 3 2 1 1 3 2 2 2 4 4 2 2 3 1 2 2 3 3 3 6 5 5 9 7 6 9 6 3 4 7 8 9 10 13 16 19 21 21 21 22
9 8 11 16 17 17 17 16 19 21 12 4 3 3 3 4 5 6 5 2 2 3 5 6 6 5 7 7 5 8 9 7 8 6 5 4 3 8 13 9 8 13 19 17 7 2 2 3 3 3 4 1 3 0 5 2 3 4 4 3 1 2 4 4 4 3 3 5 6 6 7 6 7 8 7 7 8 8 10 10 9 12 17 19 18 18 20 18
8 6 7 12 16 17 17 15 17 16 6 2 4 4 4 5 6 11 14 8 1 0 3 3 5 6 7 8 5 7 8 8 9 7 5 6 5 5 11 11 7 9 16 16 8 3 2 3 4 2 5 0 1 4 8 7 4 2 1 2 2 1 1 1 2 2 4 4 4 5 6 7 7 4 6 9 8 7 9 8 8 13 17 17 13 13 13 12
8 4 6 11 14 17 19 15 11 7 2 2 4 4 5 5 5 11 17 13 3 2 1 1 1 2 2 6 5 4 6 8 8 7 5 7 7 4 6 10 11 9 10 10 8 5 4 3 4 2 1 4 6 7 7 8 9 9 7 7 8 6 3 1 4 4 2 2 3 3 5 10 7 3 4 7 4 2 3 5 4 6 8 9 9 10 11 12
9 5 5 11 13 18 21 11 4 4 3 4 6 6 7 5 5 10 13 11 6 2 1 2 1 0 1 2 1 2 2 5 7 7 6 7 8 3 1 2 11 15 11 6 8 9 5 3 4 4 4 5 5 4 4 4 4 5 6 7 7 7 6 5 6 4 2 2 3 2 5 12 9 2 3 5 2 4 5 5 3 5 7 9 11 13 12 10
11 7 4 9 15 21 18 7 4 5 3 5 8 9 10 7 6 9 10 10 7 4 4 2 1 2 1 1 2 3 2 2 3 2 2 4 3 1 6 7 2 12 10 4 6 7 4 2 3 3 1 1 1 0 1 1 2 2 5 5 4 5 6 6 5 3 3 4 4 3 6 11 8 1 2 2 3 3 1 4 8 9 10 13 14 13 9 7
12 11 7 8 16 22 15 5 5 7 6 6 7 8 10 9 9 10 9 10 9 5 5 6 5 5 3 1 2 0 2 1 1 2 2 1 1 4 7 9 6 2 4 1 2 6 5 3 4 4 1 1 1 1 2 2 0 2 4 4 5 6 6 5 4 3 2 6 8 6 7 10 6 3 3 2 2 3 6 10 11 11 12 13 12 9 7 7
9 11 11 11 18 22 16 8 5 7 8 9 7 9 10 7 10 15 13 11 12 9 6 7 9 9 5 3 3 3 2 1 2 2 1 1 1 4 7 7 5 5 5 4 3 4 5 3 5 6 6 7 5 3 3 3 2 2 4 7 9 10 9 6 4 4 6 9 10 7 7 11 9 1 4 0 3 4 6 8 9 10 11 10 10 11 11 12
6 6 8 10 15 20 19 15 10 4 7 10 7 9 11 7 7 16 16 12 14 14 9 8 10 9 6 6 7 7 8 7 5 3 2 1 1 2 5 4 4 5 5 5 7 3 1 2 4 8 9 10 7 3 4 6 6 6 8 11 11 11 12 8 4 6 9 9 9 10 10 14 16 10 4 3 4 4 4 5 6 8 10 13 16 16 14 14
6 4 6 8 8 12 14 15 13 6 6 9 5 5 12 10 6 10 13 11 13 15 9 6 9 9 7 9 9 8 10 10 9 9 7 5 2 2 3 3 4 3 3 4 6 4 3 2 5 6 8 10 7 3 2 7 8 10 11 12 11 11 12 10 10 12 11 8 10 13 12 13 19 18 11 8 8 7 6 7 9 10 12 15 17 17 18 22
10 6 10 10 6 6 8 12 15 11 10 10 5 4 10 12 9 8 10 10 12 15 10 5 9 11 11 13 9 7 9 9 9 10 10 7 4 2 2 3 3 2 3 3 4 3 4 3 5 3 7 10 9 7 4 2 4 6 7 10 11 13 13 13 16 17 13 10 10 12 13 14 18 19 12 7 9 11 10 13 16 16 16 17 19 20 24 28
13 9 11 12 7 5 11 15 14 12 11 10 6 6 8 11 13 10 8 7 8 13 12 8 10 13 13 13 10 8 9 9 9 10 8 7 6 4 1 0 1 2 3 3 2 3 3 2 2 1 5 12 12 7 5 6 6 5 7 7 7 11 15 16 17 18 16 14 14 15 17 16 17 17 10 9 16 18 18 22 25 24 23 22 22 24 27 30
17 11 9 10 7 7 11 12 11 8 10 9 7 8 8 9 11 9 9 10 7 8 13 13 12 13 13 13 11 10 10 9 9 10 9 7 5 5 4 3 2 1 2 3 1 1 3 1 1 3 2 10 13 10 6 7 9 8 9 9 8 11 14 15 14 13 13 15 16 17 18 17 16 14 12 18 25 22 20 24 27 27 25 21 21 25 27 28
23 15 7 5 5 8 9 7 8 7 7 8 8 8 9 10 12 8 7 14 14 8 11 15 13 9 11 13 13 12 12 12 10 10 11 12 11 10 8 6 7 5 1 2 2 2 3 1 2 3 3 6 8 9 9 9 9 9 11 13 15 14 12 11 10 11 13 15 15 14 13 14 15 12 12 19 22 17 18 24 25 25 25 24 24 26 28 29
29 22 13 6 4 7 7 4 5 6 6 8 11 11 10 10 12 10 6 11 17 16 14 17 14 8 8 12 15 19 20 18 13 8 9 14 14 13 12 11 13 11 5 4 3 3 5 4 2 3 3 4 3 4 5 4 4 7 11 16 18 16 13 12 12 13 15 13 10 10 10 12 14 11 9 13 15 13 18 25 26 25 26 26 26 26 28 31
Wind_Direction
188 191 190 188 186 183 181 182 181 180 182 186 187 188 190 194 198 200 203 203 203 200 197 194 190 188 186 185 181 186 187 190 190 176 180 195 204 213 210 197 192 187 174 166 156 135 116 112 146 160 137 156 160 155 178 194 181 164 110 214 252 243 231 183 86 75 134 139 142 164 169 157 148 173 186 184 177 174 153 161 191 203 209 221 207 184 193 205
188 190 190 190 189 186 184 184 183 181 183 187 188 190 192 195 198 201 204 203 203 201 196 193 190 188 188 188 183 188 187 193 189 187 213 218 204 204 198 195 194 186 174 165 146 123 111 178 195 179 170 175 154 147 158 173 185 189 225 213 250 329 18 19 58 54 57 122 150 163 185 180 152 168 175 187 193 186 182 185 197 201 211 222 221 218 212 203
188 189 190 192 191 189 187 186 185 183 184 187 189 192 193 196 199 202 203 203 203 201 196 192 190 188 190 190 187 188 188 199 200 206 223 218 199 197 191 189 186 180 175 175 159 166 213 205 195 203 201 184 156 157 154 167 193 204 270 198 283 10 41 34 60 66 44 87 137 153 188 177 139 156 170 201 200 183 197 197 187 191 208 220 219 222 219 208
188 189 192 193 192 191 189 189 188 186 186 187 190 192 194 197 199 202 203 203 202 200 196 191 189 189 191 192 189 188 188 210 217 213 217 208 197 190 182 174 169 171 168 174 165 177 184 155 194 206 222 203 148 162 169 174 182 160 219 154 350 350 40 39 53 72 70 71 106 136 170 173 142 152 171 197 218 193 209 208 201 202 208 216 214 215 217 217
187 189 192 194 193 192 191 192 190 189 190 190 190 192 194 197 199 202 202 203 201 198 196 191 189 188 191 194 191 187 184 191 210 207 211 203 193 182 172 160 155 155 152 161 146 158 167 162 211 209 239 212 138 171 174 165 181 151 144 94 43 2 41 40 47 81 83 76 103 125 147 163 150 162 187 199 227 195 171 189 200 204 203 207 208 206 209 219
191 190 192 194 194 194 194 195 195 193 193 193 193 194 196 198 199 201 202 202 201 198 195 191 189 188 191 194 193 194 192 259 247 202 201 195 188 180 172 161 154 141 142 156 137 149 167 180 207 204 233 216 157 177 130 156 193 196 109 83 54 30 75 59 62 105 86 74 98 114 121 135 145 200 217 216 227 207 91 141 177 171 177 185 194 203 210 222
195 193 192 192 194 196 197 199 200 198 197 197 199 199 201 202 201 201 201 201 199 197 194 191 190 189 192 194 196 205 213 267 292 205 193 188 186 185 181 173 164 149 144 136 129 169 188 197 210 211 229 219 173 168 117 155 182 211 140 98 65 61 92 87 128 150 106 67 55 63 51 130 171 230 227 222 227 229 257 269 256 223 177 175 198 216 228 237
195 194 192 192 195 197 200 204 205 204 203 204 205 205 206 207 206 204 202 200 198 196 193 191 191 189 192 195 196 217 227 240 266 203 191 187 187 190 189 185 182 179 167 148 160 199 211 214 219 220 236 136 161 155 144 164 177 236 125 113 108 83 99 108 120 166 140 49 351 45 300 266 212 247 268 242 232 232 246 257 261 250 223 213 228 238 239 242
194 194 191 192 196 197 202 207 208 207 207 207 208 210 210 209 209 207 204 201 198 196 193 191 191 190 193 195 197 229 228 217 225 202 191 189 189 192 192 192 199 192 183 173 176 186 201 223 228 218 264 83 140 140 156 175 169 197 110 119 128 107 114 117 113 145 142 348 304 255 262 246 197 276 274 258 249 240 237 243 250 252 240 231 238 246 250 249
192 193 192 194 195 198 203 206 208 209 208 209 209 210 212 210 209 208 206 202 198 196 193 192 190 191 193 190 200 233 213 203 206 194 191 192 190 192 193 195 205 179 157 207 187 182 204 249 221 190 330 90 130 116 131 128 97 119 111 115 120 120 132 134 128 133 129 114 148 265 281 241 162 158 261 258 255 234 223 228 236 245 248 244 244 247 252 252
188 188 191 193 195 199 203 205 208 209 211 212 210 210 210 208 206 205 204 201 199 196 193 192 188 192 193 185 204 238 206 195 188 182 186 190 186 186 191 192 194 165 146 212 196 184 207 221 152 166 228 141 125 97 96 106 115 132 124 112 120 139 144 153 149 145 153 119 145 270 305 276 138 152 247 238 227 215 211 219 228 241 249 248 247 246 249 251
184 183 186 191 196 199 202 205 207 209 211 211 211 210 208 206 204 202 202 200 198 195 192 191 187 191 191 191 222 251 211 189 172 170 176 179 180 178 176 171 170 162 146 175 203 190 197 187 155 112 162 152 129 114 107 113 118 142 155 137 147 162 164 181 174 166 186 143 138 142 308 269 186 218 250 239 222 218 206 216 221 234 245 241 237 237 245 251
181 180 184 189 194 198 200 202 204 206 205 206 207 206 205 204 202 200 200 199 196 193 191 189 188 190 188 197 229 236 206 187 171 167 171 172 177 176 166 145 137 160 156 162 191 183 181 173 149 112 133 108 100 124 115 116 125 160 203 248 158 176 203 188 173 164 182 129 141 141 310 265 220 229 245 231 220 220 206 217 219 228 241 242 238 232 240 250
180 182 185 188 192 195 197 199 200 200 199 200 198 197 201 200 199 197 196 196 193 191 189 188 188 190 192 204 213 201 192 185 180 173 173 174 173 173 160 135 128 148 155 155 163 164 170 170 161 143 104 71 106 124 111 120 156 167 174 276 204 216 192 170 156 155 173 139 156 150 250 266 296 226 211 193 206 213 210 223 228 234 238 239 243 238 241 249
181 184 187 189 191 191 195 196 194 194 193 191 187 188 191 193 194 192 191 191 188 187 187 189 189 187 196 218 197 189 180 180 187 181 179 177 166 161 154 136 131 136 134 134 150 156 150 152 154 133 99 98 126 134 132 154 211 192 148 253 229 218 151 141 154 163 169 152 171 168 215 260 277 139 161 182 197 205 218 232 234 236 233 230 237 243 249 255
181 184 187 190 190 190 192 192 190 189 187 182 179 179 179 183 186 185 186 184 182 183 182 186 191 188 192 210 199 191 183 180 183 181 183 177 163 161 152 131 126 130 125 122 136 149 145 139 125 123 120 124 158 186 169 155 223 208 182 241 207 184 182 158 212 175 137 123 181 207 249 276 256 166 166 184 203 211 223 238 239 236 234 229 231 240 251 257
176 180 184 187 188 189 189 191 188 183 180 175 172 169 169 172 173 175 178 178 179 176 172 169 184 200 228 216 190 190 194 191 183 181 180 176 170 155 138 127 130 122 115 121 126 132 138 138 124 126 141 186 225 209 164 184 232 203 187 243 233 173 184 171 340 196 151 148 230 218 234 266 275 261 228 206 214 219 221 234 241 236 232 230 230 235 247 255
173 178 182 184 188 188 189 190 185 179 173 168 164 159 160 160 163 167 167 171 171 166 172 167 163 195 239 211 192 190 201 199 189 184 175 175 173 153 142 137 136 126 123 133 135 139 143 148 150 159 183 217 239 193 175 204 221 196 182 215 229 207 234 221 112 170 167 159 265 227 232 248 262 274 268 255 238 224 225 235 239 237 236 237 239 241 248 252
174 180 184 186 188 188 190 188 182 177 169 164 159 153 149 144 148 162 166 165 161 157 181 181 173 172 232 188 190 192 200 197 185 179 175 176 175 163 153 143 150 153 155 163 164 167 157 134 141 256 191 203 226 204 202 200 41 20 65 155 258 262 258 152 101 146 160 147 238 235 243 248 250 260 266 266 253 232 232 239 237 237 240 242 245 247 249 250
164 172 181 187 191 192 193 189 184 177 170 167 160 151 144 144 141 154 174 174 175 179 39 179 184 177 76 174 187 183 180 180 176 179 181 178 171 164 152 145 160 193 215 186 163 170 164 155 194 216 217 213 212 209 197 52 44 19 5 2 330 341 17 91 96 30 27 37 238 238 249 257 255 254 262 269 268 258 252 252 247 242 240 240 243 248 251 253
149 156 160 167 179 189 196 192 187 181 176 173 165 155 148 170 170 154 175 187 201 215 194 171 183 171 116 164 185 173 151 156 172 187 186 175 167 160 162 164 160 211 232 121 97 111 145 175 227 221 221 143 150 170 94 54 37 35 9 350 340 308 20 76 83 252 50 55 261 268 276 270 262 258 264 265 267 263 255 252 251 248 246 243 244 250 255 258
139 142 140 141 150 165 188 193 192 187 181 178 173 167 167 184 175 157 166 191 216 221 222 187 182 182 164 144 176 170 143 141 168 192 185 171 171 168 170 179 177 192 179 99 86 99 141 215 240 222 116 74 56 50 59 39 25 47 51 356 329 285 85 58 44 343 91 131 267 295 298 281 272 260 257 254 249 253 253 249 249 251 250 245 244 249 254 256
137 135 132 132 131 134 151 175 192 192 187 185 182 181 181 176 167 167 180 284 216 215 224 220 208 205 202 179 173 170 158 156 168 188 183 171 178 184 171 179 205 185 159 147 160 171 171 223 229 163 98 90 74 58 61 52 35 210 186 161 249 220 115 265 312 266 218 215 291 311 301 280 275 265 252 247 242 248 255 255 256 256 253 249 247 249 251 251
154 142 135 132 128 121 114 133 175 188 192 195 193 192 190 184 185 189 209 284 284 201 214 222 217 206 205 199 184 180 180 172 161 183 185 173 177 189 182 189 207 199 178 184 194 205 212 200 143 111 96 109 111 111 130 128 240 224 201 205 225 234 217 174 84 243 230 253 341 322 304 277 266 255 252 249 239 241 253 258 260 257 252 249 248 248 247 248
175 171 172 163 146 123 102 102 134 163 190 198 203 203 201 199 193 194 206 242 277 191 198 217 214 207 206 203 184 179 190 184 155 186 186 175 172 177 187 203 205 210 205 192 200 225 223 146 124 113 98 125 145 170 175 174 232 251 218 213 226 269 304 57 55 13 321 319 288 348 328 292 292 271 269 283 239 231 243 247 252 255 254 249 248 250 249 250
185 193 205 228 247 176 88 82 110 114 157 184 201 206 204 196 178 180 182 227 275 179 163 194 200 201 203 195 166 153 175 187 165 185 184 176 175 171 171 194 185 225 221 194 197 236 167 123 100 119 132 133 149 225 185 165 188 274 270 336 352 322 6 39 30 23 346 284 246 144 221 275 303 292 270 279 272 254 237 230 244 252 254 247 248 255 256 255
199 209 214 228 246 236 104 80 106 90 94 138 185 190 189 178 159 158 147 337 260 172 147 173 184 187 188 179 166 156 100 163 155 172 182 178 180 179 177 159 137 226 262 83 111 157 122 148 103 111 138 137 160 223 176 155 152 239 261 325 352 60 80 75 44 52 243 311 270 183 172 268 282 256 244 249 259 263 252 237 242 245 247 245 242 246 243 240
212 215 216 226 240 236 220 174 131 85 79 78 129 167 171 163 153 146 139 281 197 151 147 161 165 170 164 165 173 164 114 147 151 175 180 180 182 183 208 201 166 193 197 116 160 283 95 163 166 156 162 160 169 228 178 159 144 226 236 289 66 85 87 110 74 344 313 358 301 200 147 275 273 243 223 226 242 263 254 238 241 243 239 226 207 206 212 221
215 216 216 224 235 235 235 232 218 203 106 54 99 161 161 154 149 119 103 206 138 124 140 155 157 158 149 158 179 166 124 143 163 168 175 181 179 169 212 234 235 202 186 188 198 346 35 168 177 162 171 180 132 31 7 153 137 199 196 87 72 80 62 59 63 24 17 340 268 191 153 242 276 250 199 201 225 249 246 233 239 240 215 184 182 192 202 210
218 220 219 220 223 222 228 236 233 227 216 23 86 156 155 149 140 111 169 203 141 100 108 140 156 157 153 154 178 175 148 112 109 140 157 178 176 171 162 200 280 267 173 207 213 106 87 53 14 121 135 128 119 61 23 62 125 157 157 91 75 65 43 36 35 66 50 285 262 178 175 189 292 267 172 163 206 218 235 247 226 162 152 163 179 183 193 207
224 225 221 219 221 222 226 231 233 228 214 214 140 152 148 125 94 174 186 192 18 119 116 142 150 151 165 163 155 180 168 117 137 145 139 158 173 198 207 167 359 27 39 315 285 111 135 115 37 135 124 114 112 69 29 40 105 131 122 111 93 28 22 23 352 59 119 258 294 174 184 183 239 264 98 105 215 201 228 317 79 113 138 166 185 184 208 234
219 220 219 219 220 224 227 232 236 229 217 215 187 165 143 84 241 222 193 87 111 179 153 173 163 154 178 177 155 175 167 143 161 164 153 157 171 189 197 189 154 138 265 228 213 85 181 201 150 118 143 155 128 79 37 10 11 119 139 126 109 12 4 2 254 166 212 241 292 328 223 210 240 255 309 277 256 229 234 221 139 130 157 179 200 231 254 251
213 211 214 216 219 223 226 234 238 226 221 215 188 167 126 176 206 213 200 154 149 201 140 152 162 159 172 180 168 164 161 160 170 173 163 162 183 199 212 215 184 187 223 184 179 169 241 259 150 115 320 195 175 134 132 249 211 186 164 143 145 161 196 240 225 221 242 244 282 323 5 263 266 281 265 249 246 246 238 218 183 167 202 261 269 266 266 262
211 208 211 211 218 224 225 233 233 219 217 203 167 128 143 209 209 197 201 193 57 40 106 131 152 158 172 187 171 157 164 183 168 170 170 162 188 207 212 224 210 211 221 177 185 178 211 278 181 168 178 180 191 191 166 153 173 198 185 159 174 171 188 216 193 211 240 256 299 313 300 206 235 277 244 227 311 306 278 252 271 292 295 293 278 269 273 272
213 212 212 208 215 220 222 228 227 219 211 186 145 105 183 205 220 195 198 183 107 117 108 124 139 153 182 203 166 158 161 172 168 171 178 178 199 204 194 207 210 205 184 197 213 170 205 249 182 166 163 165 184 202 165 131 153 217 195 187 218 198 179 192 170 180 171 339 296 234 240 222 213 271 268 268 298 303 286 258 263 274 273 264 260 273 278 276
217 214 215 215 216 217 220 223 222 222 208 174 141 183 201 207 214 175 204 126 138 142 126 132 144 158 184 196 209 196 95 81 164 169 191 199 212 210 202 200 198 199 190 188 201 156 187 248 105 105 154 170 185 197 171 150 172 201 173 201 216 149 134 174 265 49 104 263 259 197 257 281 298 286 265 238 251 260 253 242 241 250 256 256 262 270 274 274
217 217 221 220 218 220 221 219 220 221 206 180 181 219 205 218 178 149 290 330 140 150 143 150 172 180 187 178 194 198 158 107 168 171 184 196 221 214 213 213 195 198 202 196 216 192 166 222 305 76 169 197 182 174 184 138 120 134 179 201 125 45 46 148 211 355 149 245 258 204 245 271 284 277 281 191 231 236 233 232 234 244 250 254 259 265 268 268
209 223 232 226 220 221 217 215 219 214 196 177 216 235 224 226 193 175 276 322 218 172 174 188 182 182 192 188 184 181 170 160 174 185 182 176 221 208 201 212 199 200 206 201 211 255 159 206 277 4 9 293 37 80 212 359 62 109 192 223 104 122 246 147 175 229 219 239 262 248 251 254 232 246 286 315 232 219 224 224 226 237 241 245 254 263 268 265
197 221 242 232 221 217 214 212 208 199 184 164 202 211 227 231 223 220 226 286 318 210 208 209 199 199 198 194 176 167 178 180 169 181 193 178 208 200 188 196 201 200 200 196 202 228 158 190 237 334 337 330 43 183 198 198 29 36 355 327 101 162 185 172 186 194 197 225 250 263 264 254 235 239 259 255 232 218 221 220 220 226 231 239 250 263 268 265
194 216 247 230 218 215 212 206 196 188 178 185 188 177 187 206 225 224 223 231 356 25 234 227 216 216 211 211 194 161 182 192 176 185 200 184 194 203 185 184 188 191 191 191 197 190 148 193 208 319 336 333 161 218 197 179 166 146 286 232 204 160 128 176 246 189 178 204 232 255 266 262 243 214 227 236 234 230 220 209 207 211 219 232 245 259 266 267
199 226 235 212 207 205 199 192 188 189 194 182 178 174 180 189 202 209 219 224 204 76 62 55 225 239 237 226 214 161 178 195 191 193 199 191 202 221 186 179 181 177 176 187 195 184 174 189 176 152 284 215 210 215 199 183 186 189 192 197 201 193 162 206 248 224 179 190 216 225 262 269 253 180 236 250 237 215 156 133 160 201 221 241 253 263 272 274
209 231 222 202 199 192 186 185 184 190 220 202 187 185 181 186 192 189 201 211 208 196 130 82 102 157 2 266 244 49 169 202 203 198 202 204 202 219 336 177 180 171 161 181 200 191 174 157 174 190 199 205 215 207 187 179 188 206 218 210 201 193 181 193 217 214 172 222 249 231 257 269 267 230 263 268 159 119 92 68 349 301 284 273 271 272 276 278
219 225 219 206 203 191 183 193 212 193 222 217 197 188 181 184 191 182 182 190 197 201 189 192 225 209 250 60 78 18 13 218 222 202 210 213 195 341 3 14 146 167 160 181 200 181 156 145 187 213 214 71 33 22 210 134 123 225 247 220 194 205 201 197 202 193 175 196 211 221 245 262 281 339 157 162 121 125 74 308 284 275 269 267 270 270 270 280
227 233 241 217 203 194 187 197 204 202 222 213 200 199 195 200 199 186 180 185 188 183 187 205 210 206 225 112 113 7 31 62 304 359 355 282 66 30 22 23 19 115 132 90 170 165 173 186 177 182 220 272 349 342 322 343 77 229 231 202 206 218 200 189 206 212 218 210 202 209 239 252 277 10 70 116 141 210 245 250 248 252 258 258 260 269 286 295
223 233 236 224 209 201 203 217 213 213 219 210 208 207 201 209 208 196 189 184 187 181 178 200 194 182 185 166 166 226 228 190 279 326 349 301 48 44 29 25 20 39 58 36 36 151 185 203 181 185 209 219 219 222 210 193 191 224 218 204 209 210 195 181 178 196 225 226 216 218 243 254 260 342 62 110 208 220 238 237 241 252 258 262 271 281 288 295
212 224 216 212 214 214 220 230 236 242 221 210 212 209 203 208 207 200 196 190 189 188 187 193 186 172 170 175 185 218 223 207 216 246 269 249 191 59 35 40 61 58 59 41 28 52 137 259 217 206 220 224 217 205 165 149 159 199 216 212 209 208 204 195 173 201 219 228 234 232 236 257 262 253 241 253 236 225 223 211 223 251 267 277 281 280 282 294
220 228 201 187 205 222 232 234 232 239 230 214 205 205 208 207 202 200 203 202 193 193 199 194 179 176 181 183 189 210 211 199 200 220 236 238 197 93 62 65 72 71 81 53 32 61 99 291 257 237 247 250 251 267 141 140 168 201 212 211 213 212 207 203 212 223 221 221 240 240 231 247 262 258 250 252 258 258 249 241 252 272 280 278 275 274 280 288
222 241 226 209 197 203 218 222 218 219 231 230 223 224 216 208 205 201 203 209 199 192 199 205 195 195 187 184 192 202 199 196 200 211 221 223 198 121 67 48 54 77 109 75 42 81 121 241 264 278 284 277 281 295 297 215 202 214 216 213 212 212 210 212 223 229 228 226 240 249 241 240 256 263 256 247 258 264 270 279 286 291 290 286 282 280 280 282
225 250 247 236 232 216 215 212 206 211 225 228 227 235 226 215 214 204 180 190 205 200 200 204 204 203 197 192 195 196 192 192 201 209 210 207 200 181 175 209 50 52 85 88 45 78 126 239 277 19 299 280 274 286 303 293 286 277 258 242 221 216 216 217 225 231 234 239 247 255 256 252 255 264 274 278 275 279 287 291 291 290 289 287 286 284 280 277
219 232 249 253 256 258 245 218 190 196 219 220 223 230 229 227 225 212 182 182 193 198 201 210 210 199 199 204 204 207 206 191 196 207 193 181 191 191 202 200 151 69 63 92 50 83 147 217 24 95 265 274 272 276 282 276 275 273 271 270 257 242 231 224 229 234 237 244 247 251 261 265 261 265 280 281 279 283 288 286 283 284 286 288 287 283 276 271
220 220 237 281 254 241 255 233 187 188 206 210 219 222 224 228 226 225 208 196 194 188 191 207 216 202 199 210 209 216 217 204 210 218 191 188 199 197 202 188 148 136 115 135 129 120 156 190 49 111 210 260 262 259 252 251 260 265 263 258 248 244 242 236 231 228 229 236 242 247 254 260 263 266 272 274 276 278 278 277 278 282 285 286 283 277 273 271
223 225 233 267 270 230 237 237 205 209 205 201 212 218 221 226 222 226 235 201 198 202 199 199 207 205 205 213 215 220 223 218 226 237 198 199 206 196 198 196 169 158 157 152 150 146 158 169 146 156 213 258 242 216 218 221 242 249 242 239 238 238 243 249 246 238 233 229 232 242 244 254 269 273 265 268 272 270 272 276 279 282 283 282 279 277 276 275